LU3HGB-WX Weather Reports


Display with metric or nautical units.
time (UTC)temp
F
wind
direction
speed
MPH
gust
MPH
rain 1hr
in
rain 24hr
in
rain mn
in
humidity
%
barometer
mb
20260505235240 61 89 0.0 2.0 0.00 0.00 0.00 85 1013.0
20260505234739 60 255 0.0 1.0 0.00 0.00 0.00 86 1013.0
20260505234240 60 309 1.0 2.0 0.00 0.00 0.00 86 1013.0
20260505233739 60 301 1.0 2.0 0.00 0.00 0.00 86 1013.0
20260505233239 59 311 1.0 2.0 0.00 0.00 0.00 89 1013.0
20260505232739 59 295 1.0 2.0 0.00 0.00 0.00 89 1013.0
20260505232239 59 298 1.0 2.0 0.00 0.00 0.00 88 1013.0
20260505231739 58 324 0.0 2.0 0.00 0.00 0.00 88 1013.0
20260505231239 58 22 0.0 1.0 0.00 0.00 0.00 88 1012.0
20260505230739 58 264 1.0 2.0 0.00 0.00 0.00 88 1012.0
20260505230240 57 314 0.0 1.0 0.00 0.00 0.00 88 1012.0
20260505225739 57 296 1.0 2.0 0.00 0.00 0.00 88 1012.0
20260505225240 58 265 1.0 2.0 0.00 0.00 0.00 87 1012.0
20260505224740 58 294 1.0 2.0 0.00 0.00 0.00 87 1012.0
20260505224240 59 291 0.0 2.0 0.00 0.00 0.00 85 1012.0
20260505223740 59 304 2.0 3.0 0.00 0.00 0.00 85 1012.0
20260505223240 60 313 0.0 2.0 0.00 0.00 0.00 86 1012.0
20260505222741 60 228 1.0 1.0 0.00 0.00 0.00 85 1012.0
20260505222241 60 207 1.0 2.0 0.00 0.00 0.00 84 1011.0
20260505221740 61 177 0.0 2.0 0.00 0.00 0.00 83 1011.0
20260505221239 62 282 0.0 0.0 0.00 0.00 0.00 83 1011.0
20260505220740 62 310 1.0 2.0 0.00 0.00 0.00 82 1011.0
20260505220240 63 272 1.0 1.0 0.00 0.00 0.00 78 1011.0
20260505215740 64 330 0.0 0.0 0.00 0.00 0.00 78 1011.0
20260505215239 65 278 0.0 1.0 0.00 0.00 0.00 76 1011.0
20260505214742 66 273 1.0 2.0 0.00 0.00 0.00 75 1011.0
20260505214240 67 309 1.0 2.0 0.00 0.00 0.00 73 1011.0
20260505213739 68 336 0.0 1.0 0.00 0.00 0.00 70 1011.0
20260505213240 68 29 0.0 1.0 0.00 0.00 0.00 69 1011.0
20260505212743 69 20 0.0 1.0 0.00 0.00 0.00 67 1011.0
20260505212239 70 24 0.0 2.0 0.00 0.00 0.00 65 1011.0
20260505211740 70 337 0.0 2.0 0.00 0.00 0.00 63 1011.0
20260505211240 70 335 0.0 1.0 0.00 0.00 0.00 63 1011.0
20260505210257 71 342 2.0 3.0 0.00 0.00 0.00 62 1011.0
20260505205739 72 341 1.0 2.0 0.00 0.00 0.00 60 1011.0
20260505205239 73 343 1.0 3.0 0.00 0.00 0.00 58 1011.0
20260505204740 73 349 2.0 3.0 0.00 0.00 0.00 57 1010.0
20260505204240 74 329 2.0 3.0 0.00 0.00 0.00 56 1010.0
20260505203740 74 347 2.0 4.0 0.00 0.00 0.00 54 1010.0
20260505203240 75 314 2.0 4.0 0.00 0.00 0.00 54 1010.0
20260505202739 76 307 2.0 3.0 0.00 0.00 0.00 52 1011.0
20260505202239 76 340 0.0 1.0 0.00 0.00 0.00 51 1011.0
20260505201739 76 48 1.0 2.0 0.00 0.00 0.00 51 1011.0
20260505201239 75 89 1.0 2.0 0.00 0.00 0.00 52 1011.0
20260505200739 75 336 3.0 4.0 0.00 0.00 0.00 51 1011.0
20260505200240 76 325 2.0 4.0 0.00 0.00 0.00 52 1010.0
20260505195740 76 332 2.0 4.0 0.00 0.00 0.00 51 1010.0
20260505195239 76 339 1.0 2.0 0.00 0.00 0.00 51 1010.0
20260505194739 76 338 2.0 3.0 0.00 0.00 0.00 52 1010.0
20260505194240 76 346 1.0 3.0 0.00 0.00 0.00 52 1010.0
20260505193739 77 315 1.0 3.0 0.00 0.00 0.00 50 1010.0
20260505193239 77 0 2.0 3.0 0.00 0.00 0.00 48 1010.0
20260505192740 76 332 1.0 2.0 0.00 0.00 0.00 49 1011.0
20260505192239 76 349 3.0 4.0 0.00 0.00 0.00 48 1011.0
20260505191740 76 330 2.0 3.0 0.00 0.00 0.00 50 1011.0
20260505191239 76 327 2.0 3.0 0.00 0.00 0.00 50 1011.0
20260505190740 75 323 2.0 4.0 0.00 0.00 0.00 52 1011.0
20260505190240 76 351 2.0 4.0 0.00 0.00 0.00 51 1011.0
20260505185740 76 325 2.0 3.0 0.00 0.00 0.00 53 1011.0
20260505185239 76 353 3.0 4.0 0.00 0.00 0.00 49 1011.0
20260505184739 76 118 1.0 2.0 0.00 0.00 0.00 51 1011.0
20260505184239 76 355 2.0 5.0 0.00 0.00 0.00 52 1011.0
20260505183739 77 5 2.0 4.0 0.00 0.00 0.00 49 1011.0
20260505183240 77 3 2.0 5.0 0.00 0.00 0.00 51 1011.0
20260505182739 77 329 2.0 4.0 0.00 0.00 0.00 51 1011.0
20260505182239 77 329 3.0 4.0 0.00 0.00 0.00 49 1011.0
20260505181739 77 2 2.0 4.0 0.00 0.00 0.00 49 1011.0
20260505181240 76 10 2.0 3.0 0.00 0.00 0.00 49 1011.0
20260505180740 76 329 2.0 4.0 0.00 0.00 0.00 50 1011.0
20260505180239 76 114 2.0 3.0 0.00 0.00 0.00 47 1011.0
20260505175740 76 8 2.0 5.0 0.00 0.00 0.00 50 1011.0
20260505175239 76 339 4.0 7.0 0.00 0.00 0.00 50 1011.0
20260505174742 76 329 2.0 4.0 0.00 0.00 0.00 49 1011.0
20260505174240 77 35 1.0 3.0 0.00 0.00 0.00 51 1012.0
20260505173739 76 347 2.0 4.0 0.00 0.00 0.00 49 1012.0
20260505173240 76 30 2.0 5.0 0.00 0.00 0.00 50 1012.0
20260505172739 77 98 2.0 4.0 0.00 0.00 0.00 49 1012.0
20260505172240 77 79 1.0 3.0 0.00 0.00 0.00 50 1012.0
20260505171740 77 329 0.0 2.0 0.00 0.00 0.00 47 1012.0
20260505171240 77 63 2.0 3.0 0.00 0.00 0.00 48 1012.0
20260505170740 76 101 1.0 2.0 0.00 0.00 0.00 48 1012.0
20260505170240 76 124 2.0 4.0 0.00 0.00 0.00 47 1012.0
20260505165739 75 311 1.0 2.0 0.00 0.00 0.00 51 1012.0
20260505165240 75 288 2.0 3.0 0.00 0.00 0.00 49 1012.0
20260505164740 75 192 2.0 3.0 0.00 0.00 0.00 49 1012.0
20260505164240 74 95 1.0 3.0 0.00 0.00 0.00 50 1012.0
20260505163740 74 104 2.0 4.0 0.00 0.00 0.00 50 1012.0
20260505163240 74 125 3.0 4.0 0.00 0.00 0.00 49 1012.0
20260505162739 74 192 2.0 4.0 0.00 0.00 0.00 51 1012.0
20260505162240 74 107 2.0 4.0 0.00 0.00 0.00 51 1012.0
20260505161740 73 113 2.0 3.0 0.00 0.00 0.00 51 1012.0
20260505161240 73 213 1.0 3.0 0.00 0.00 0.00 51 1013.0
20260505160740 73 13 2.0 3.0 0.00 0.00 0.00 54 1013.0
20260505160239 73 99 1.0 2.0 0.00 0.00 0.00 52 1013.0
20260505153239 70 27 0.0 2.0 0.00 0.00 0.00 55 1013.0
20260505152740 70 7 1.0 2.0 0.00 0.00 0.00 58 1013.0
20260505152239 69 324 1.0 2.0 0.00 0.00 0.00 59 1013.0
20260505151739 69 67 2.0 3.0 0.00 0.00 0.00 61 1013.0
20260505151239 69 28 2.0 4.0 0.00 0.00 0.00 62 1013.0
20260505150742 69 313 2.0 4.0 0.00 0.00 0.00 60 1013.0
20260505150241 68 317 1.0 2.0 0.00 0.00 0.00 60 1013.0
20260505140239 64 13 1.0 2.0 0.00 0.00 0.00 71 1013.0
20260505130240 57 277 2.0 3.0 0.00 0.00 0.00 81 1014.0
20260505124739 54 19 1.0 2.0 0.00 0.00 0.00 86 1014.0
20260505124240 53 304 0.0 1.0 0.00 0.00 0.00 87 1013.0
20260505123740 53 20 1.0 1.0 0.00 0.00 0.00 91 1013.0
20260505123239 52 44 0.0 2.0 0.00 0.00 0.00 93 1013.0
20260505122743 52 17 1.0 1.0 0.00 0.00 0.00 94 1013.0
20260505122239 51 39 0.0 1.0 0.00 0.00 0.00 95 1013.0
20260505121739 51 20 0.0 1.0 0.00 0.00 0.00 95 1012.0
20260505121240 50 251 0.0 2.0 0.00 0.00 0.00 95 1012.0
20260505120740 49 354 0.0 1.0 0.00 0.00 0.00 95 1013.0
20260505120240 48 111 0.0 2.0 0.00 0.00 0.00 95 1013.0
20260505115740 47 0 0.0 1.0 0.00 0.00 0.00 95 1013.0
20260505115240 46 333 0.0 1.0 0.00 0.00 0.00 95 1013.0
20260505114740 45 353 0.0 1.0 0.00 0.00 0.00 95 1013.0
20260505114240 45 31 1.0 2.0 0.00 0.00 0.00 95 1013.0
20260505113739 45 311 1.0 2.0 0.00 0.00 0.00 95 1013.0
20260505113240 45 222 1.0 1.0 0.00 0.00 0.00 95 1013.0
20260505112740 45 209 0.0 0.0 0.00 0.00 0.00 95 1013.0
20260505112239 45 237 1.0 2.0 0.00 0.00 0.00 95 1013.0
20260505111739 45 0 0.0 0.0 0.00 0.00 0.00 95 1013.0
20260505111240 45 166 0.0 0.0 0.00 0.00 0.00 95 1013.0
20260505110739 45 0 0.0 0.0 0.00 0.00 0.00 95 1013.0
20260505110239 45 37 0.0 0.0 0.00 0.00 0.00 95 1013.0
20260505101739 44 301 0.0 1.0 0.00 0.00 0.00 95 1013.0
20260505101239 43 38 0.0 1.0 0.00 0.00 0.00 95 1013.0
20260505100741 44 283 1.0 2.0 0.00 0.00 0.00 95 1013.0
20260505100239 43 285 0.0 1.0 0.00 0.00 0.00 95 1013.0
20260505095739 43 273 1.0 2.0 0.00 0.00 0.00 95 1013.0
20260505095239 44 293 0.0 0.0 0.00 0.00 0.00 95 1013.0
20260505094739 44 201 0.0 0.0 0.00 0.00 0.00 95 1012.0
20260505094239 44 322 1.0 1.0 0.00 0.00 0.00 95 1012.0
20260505093739 44 0 0.0 0.0 0.00 0.00 0.00 95 1012.0
20260505093240 44 281 1.0 2.0 0.00 0.00 0.00 95 1012.0
20260505092739 44 17 0.0 1.0 0.00 0.00 0.00 95 1012.0
20260505092239 44 316 1.0 2.0 0.00 0.00 0.00 95 1012.0
20260505091739 45 186 1.0 1.0 0.00 0.00 0.00 95 1012.0
20260505091239 45 326 0.0 1.0 0.00 0.00 0.00 95 1012.0
20260505090739 45 0 0.0 0.0 0.00 0.00 0.00 95 1012.0
20260505090239 45 295 2.0 3.0 0.00 0.00 0.00 95 1012.0
20260505085740 45 209 2.0 4.0 0.00 0.00 0.00 95 1012.0
20260505085239 44 280 1.0 1.0 0.00 0.00 0.00 95 1012.0
20260505084739 44 285 0.0 1.0 0.00 0.00 0.00 95 1012.0
20260505084240 45 325 0.0 0.0 0.00 0.00 0.00 95 1012.0
20260505083740 45 319 1.0 1.0 0.00 0.00 0.00 95 1012.0
20260505083240 46 278 2.0 2.0 0.00 0.00 0.00 95 1012.0
20260505082739 45 190 0.0 2.0 0.00 0.00 0.00 95 1012.0
20260505082239 44 284 1.0 2.0 0.00 0.00 0.00 95 1012.0
20260505081741 44 273 1.0 1.0 0.00 0.00 0.00 95 1012.0
20260505081239 44 326 2.0 4.0 0.00 0.00 0.00 95 1012.0
20260505080739 44 315 2.0 2.0 0.00 0.00 0.00 95 1012.0
20260505080240 44 328 1.0 2.0 0.00 0.00 0.00 95 1011.0
20260505075739 44 313 0.0 0.0 0.00 0.00 0.00 95 1011.0
20260505075240 45 265 2.0 2.0 0.00 0.00 0.00 94 1011.0
20260505074739 46 302 2.0 3.0 0.00 0.00 0.00 95 1011.0
20260505074244 46 337 0.0 1.0 0.00 0.00 0.00 95 1011.0
20260505073741 47 263 1.0 2.0 0.00 0.00 0.00 95 1011.0
20260505073240 47 42 0.0 1.0 0.00 0.00 0.00 95 1011.0
20260505072739 48 105 0.0 0.0 0.00 0.00 0.00 95 1011.0
20260505072239 48 60 0.0 0.0 0.00 0.00 0.00 95 1011.0
20260505071741 48 179 1.0 2.0 0.00 0.00 0.00 95 1012.0
20260505071239 47 196 3.0 3.0 0.00 0.00 0.00 95 1012.0
20260505070740 45 247 2.0 2.0 0.00 0.00 0.00 95 1012.0
20260505070241 44 209 1.0 1.0 0.00 0.00 0.00 95 1012.0
20260505065740 44 0 0.0 0.0 0.00 0.00 0.00 95 1012.0
20260505065239 43 141 2.0 3.0 0.00 0.00 0.00 95 1012.0
20260505064739 43 216 0.0 0.0 0.00 0.00 0.00 95 1012.0
20260505064239 43 302 1.0 2.0 0.00 0.00 0.00 95 1012.0
20260505063739 43 286 1.0 1.0 0.00 0.00 0.00 95 1012.0
20260505063239 43 288 1.0 1.0 0.00 0.00 0.00 95 1012.0
20260505062740 43 265 0.0 1.0 0.00 0.00 0.00 95 1012.0
20260505062240 43 226 1.0 2.0 0.00 0.00 0.00 95 1012.0
20260505061739 43 328 1.0 1.0 0.00 0.00 0.00 95 1012.0
20260505061240 43 251 1.0 1.0 0.00 0.00 0.00 95 1012.0
20260505060739 43 318 2.0 2.0 0.00 0.00 0.00 95 1012.0
20260505060239 43 0 0.0 0.0 0.00 0.00 0.00 95 1012.0
20260505055739 43 253 1.0 1.0 0.00 0.00 0.00 95 1012.0
20260505055239 43 330 0.0 1.0 0.00 0.00 0.00 95 1012.0
20260505054739 43 328 1.0 1.0 0.00 0.00 0.00 95 1013.0
20260505054239 43 321 1.0 2.0 0.00 0.00 0.00 95 1013.0
20260505053740 43 308 2.0 2.0 0.00 0.00 0.00 95 1013.0
20260505053239 44 331 0.0 1.0 0.00 0.00 0.00 95 1013.0
20260505052740 45 274 1.0 2.0 0.00 0.00 0.00 95 1013.0
20260505052239 45 131 0.0 0.0 0.00 0.00 0.00 95 1013.0
20260505051739 44 286 0.0 0.0 0.00 0.00 0.00 95 1013.0
20260505051239 45 340 1.0 2.0 0.00 0.00 0.00 95 1013.0
20260505050739 45 252 2.0 2.0 0.00 0.00 0.00 95 1013.0
20260505050239 45 337 0.0 1.0 0.00 0.00 0.00 95 1013.0
20260505041739 47 252 0.0 1.0 0.00 0.00 0.00 95 1013.0
20260505041239 47 243 0.0 1.0 0.00 0.00 0.00 94 1013.0
20260505040739 47 0 0.0 0.0 0.00 0.00 0.00 95 1013.0
20260505040240 47 236 0.0 1.0 0.00 0.00 0.00 95 1013.0
20260505035739 47 263 0.0 1.0 0.00 0.00 0.00 95 1013.0
20260505035240 47 267 1.0 2.0 0.00 0.00 0.00 94 1013.0
20260505034740 47 287 0.0 2.0 0.00 0.00 0.00 94 1013.0
20260505034239 47 295 2.0 3.0 0.00 0.00 0.00 94 1013.0
20260505033739 47 270 2.0 2.0 0.00 0.00 0.00 94 1013.0
20260505033240 48 1 0.0 1.0 0.00 0.00 0.00 94 1013.0
20260505032739 48 6 0.0 1.0 0.00 0.00 0.00 94 1013.0
20260505032239 48 283 1.0 2.0 0.00 0.00 0.00 94 1013.0
20260505031739 48 309 0.0 2.0 0.00 0.00 0.00 94 1013.0
20260505031240 49 307 0.0 1.0 0.00 0.00 0.00 93 1013.0
20260505030739 49 274 1.0 2.0 0.00 0.00 0.00 94 1013.0
20260505030239 49 268 1.0 2.0 0.00 0.00 0.00 94 1013.0
20260505025739 49 270 1.0 2.0 0.00 0.00 0.00 94 1013.0
20260505025239 49 269 0.0 1.0 0.00 0.00 0.00 94 1013.0
20260505024739 49 280 0.0 1.0 0.00 0.00 0.00 94 1013.0
20260505024239 49 279 1.0 2.0 0.00 0.00 0.00 94 1013.0
20260505023739 49 255 1.0 2.0 0.00 0.00 0.00 94 1013.0
20260505023239 49 289 3.0 4.0 0.00 0.00 0.00 93 1013.0
20260505022739 49 0 0.0 0.0 0.00 0.00 0.00 93 1013.0
20260505022239 49 312 1.0 2.0 0.00 0.00 0.00 93 1013.0
20260505021739 49 285 0.0 2.0 0.00 0.00 0.00 93 1013.0
20260505021239 49 270 0.0 1.0 0.00 0.00 0.00 93 1013.0
20260505020740 49 0 0.0 0.0 0.00 0.00 0.00 93 1012.0
20260505020239 49 0 0.0 0.0 0.00 0.00 0.00 93 1013.0
20260505015739 49 294 0.0 2.0 0.00 0.00 0.00 93 1013.0
20260505015240 49 292 1.0 2.0 0.00 0.00 0.00 93 1013.0
20260505014739 48 285 1.0 3.0 0.00 0.00 0.00 93 1013.0
20260505014240 48 326 0.0 2.0 0.00 0.00 0.00 93 1013.0
20260505013739 47 346 1.0 2.0 0.00 0.00 0.00 92 1013.0
20260505013240 48 294 2.0 2.0 0.00 0.00 0.00 92 1012.0
20260505012739 48 334 0.0 1.0 0.00 0.00 0.00 92 1012.0
20260505012239 48 356 1.0 2.0 0.00 0.00 0.00 92 1012.0
20260505011739 49 280 0.0 2.0 0.00 0.00 0.00 93 1012.0
20260505011239 48 292 3.0 4.0 0.00 0.00 0.00 92 1012.0
20260505010739 49 299 1.0 2.0 0.00 0.00 0.00 91 1012.0
20260505010239 49 329 1.0 2.0 0.00 0.00 0.00 91 1012.0
20260505005739 49 284 2.0 2.0 0.00 0.00 0.00 91 1012.0
20260505005239 49 220 1.0 2.0 0.00 0.00 0.00 92 1012.0
20260505004740 48 270 2.0 3.0 0.00 0.00 0.00 92 1012.0
20260505004239 48 307 1.0 2.0 0.00 0.00 0.00 92 1011.0
20260505003739 48 311 1.0 2.0 0.00 0.00 0.00 91 1011.0
20260505003239 48 287 0.0 1.0 0.00 0.00 0.00 91 1011.0
20260505002739 48 286 0.0 1.0 0.00 0.00 0.00 92 1011.0
20260505002239 48 313 1.0 2.0 0.00 0.00 0.00 91 1011.0
20260505001739 49 283 1.0 2.0 0.00 0.00 0.00 90 1011.0
20260505001239 49 353 1.0 2.0 0.00 0.00 0.00 91 1011.0
20260505000739 49 351 0.0 1.0 0.00 0.00 0.00 88 1010.0
20260505000241 50 327 1.0 2.0 0.00 0.00 0.00 89 1010.0
20260504235739 50 290 0.0 1.0 0.00 0.00 0.00 89 1010.0